North Battleford Airport
CYQW : now visible

Airfield :











YOU CAN JOIN US ON...

 
LOGIN :

Register | Disclaimer

   EN    FR    IT 

 









Legend :    VFR   Marginal VFR   IFR   Intensive IFR   Very Intensive IFR
Visi :
Ceiling :
>= 8 km
>= 3000ft
5 to 8 km
1000 to 3000 ft
1500m to 5 km
500 to 1000 ft
800 to 1500m
200 to 500 ft
< 800m
< 200 ft
Symbols :   Thunderstorms  Fog  Heavy snow  Heavy precipitations  Wind > 20 kt






- Airport Elevation : 1799 ft
- IATA code : YQW


CYQW - North Battleford

CURRENT METAR :
  • 220300Z AUTO 16003KT 8SM CLR 11/M08 A2960 RMK SLP037 DENSITY ALT 2200FT

EXPIRED METARs :
  • 220200Z AUTO 27006KT 9SM CLR 16/M08 A2961 RMK SLP040 DENSITY ALT 2700FT
  • 220100Z AUTO 25007KT 9SM CLR 18/M08 A2962 RMK SLP046 DENSITY ALT 3000FT

TAF TAF CYQW
Valid from the 22 at 00:00 until the 22 at 12:00 UTC


212338Z 2200/2212 22012G22KT P6SM SKC
FM220900 34015G25KT P6SM SCT020 OVC080
TEMPO 2209/2212 3SM -SHSNRA BR OVC020
BECMG 2210/2212 35020G30KT RMK FCST BASED ON AUTO OBS. NXT FCST BY 220600Z
CZWG FIR / North America



MET'MAP, your aeronautical weather chart ! - Copyright ORBIFLY December 2007 - Disclaimer

ORBIFLY MET'MAP TEAM :

Programming & Development : Alexandra Zaïnal
Concept & original design : Baudouin d'Aumeries
Assistance for programming : Marc-Olivier Méhu
Technical & hardware support : Manuel Goepfert

Contact : metmap@orbifly.com




SOURCES & CREDITS :

   NOAA       Earth
Advisory